EW4896 Weather Reports


time (UTC)temp
C
wind
direction
speed
KPH
gust
KPH
rain 1hr
cm
rain 24hr
cm
rain mn
cm
humidity
%
barometer
mb
20260505013040 16 82 3.2 9.7 0.00 0.00 0.00 54 1008.0
20260505011549 16 78 3.2 8.0 0.00 0.00 0.00 52 1007.8
20260505010039 16 80 4.8 11.3 0.00 0.00 0.00 52 1007.5
20260505004537 17 83 3.2 8.0 0.00 0.00 0.00 51 1007.2
20260505003037 17 61 1.6 6.4 0.00 0.00 0.00 50 1006.9
20260505001536 17 82 4.8 9.7 0.00 0.00 0.00 48 1006.5
20260505000035 18 69 4.8 14.5 0.00 0.00 0.00 47 1006.2
20260504234534 18 223 8.0 17.7 0.00 0.00 0.00 45 1005.9
20260504233036 19 207 6.4 14.5 0.00 0.00 0.00 43 1005.5
20260504231533 20 74 3.2 8.0 0.00 0.00 0.00 40 1005.2
20260504230032 21 81 4.8 12.9 0.00 0.00 0.00 35 1004.9
20260504224531 21 82 6.4 14.5 0.00 0.00 0.00 35 1004.8
20260504223030 21 240 8.0 16.1 0.00 0.00 0.00 35 1004.6
20260504221529 21 225 6.4 12.9 0.00 0.00 0.00 35 1004.6
20260504220028 21 231 9.7 12.9 0.00 0.00 0.00 35 1004.8
20260504214527 21 232 6.4 12.9 0.00 0.00 0.00 35 1004.7
20260504213027 22 233 11.3 17.7 0.00 0.00 0.00 33 1004.8
20260504211527 22 252 8.0 19.3 0.00 0.00 0.00 32 1004.9
20260504210025 22 236 6.4 12.9 0.00 0.00 0.00 33 1004.7
20260504204526 22 254 9.7 19.3 0.00 0.00 0.00 32 1004.7
20260504203024 22 240 8.0 17.7 0.00 0.00 0.00 32 1004.7
20260504201521 22 298 4.8 22.5 0.00 0.00 0.00 33 1004.7
20260504200034 21 236 4.8 14.5 0.00 0.00 0.00 33 1004.8
20260504194521 21 252 8.0 19.3 0.00 0.00 0.00 32 1005.0
20260504193018 22 238 11.3 17.7 0.00 0.00 0.00 31 1004.9
20260504191527 21 214 9.7 19.3 0.00 0.00 0.00 32 1004.9
20260504190013 21 233 12.9 22.5 0.00 0.00 0.00 31 1005.1
20260504184513 21 239 11.3 22.5 0.00 0.00 0.00 31 1005.4
20260504183020 21 227 9.7 22.5 0.00 0.00 0.00 33 1005.5
20260504181509 21 237 12.9 29.0 0.00 0.00 0.00 32 1005.5
20260504180006 21 204 9.7 29.0 0.00 0.00 0.00 33 1005.7
20260504174505 21 256 11.3 19.3 0.00 0.00 0.00 33 1005.7
20260504173003 20 267 8.0 16.1 0.00 0.00 0.00 35 1005.9
20260504171501 20 223 12.9 27.4 0.00 0.00 0.00 35 1005.9
20260504170108 20 243 14.5 22.5 0.00 0.00 0.00 35 1006.1
20260504081606 6 126 0.0 1.6 0.00 0.00 0.00 72 1008.8
20260504044535 1 215 0.0 3.2 0.00 0.00 0.00 83 1008.7
20260504043027 1 214 0.0 3.2 0.00 0.00 0.00 83 1008.8
20260504041524 1 210 1.6 3.2 0.00 0.00 0.00 82 1008.7
20260504040021 1 194 0.0 1.6 0.00 0.00 0.00 81 1008.6
20260504034524 2 202 1.6 3.2 0.00 0.00 0.00 81 1008.5
20260504033017 2 169 0.0 1.6 0.00 0.00 0.00 80 1008.4
20260504031517 2 161 0.0 1.6 0.00 0.00 0.00 79 1008.3
20260504030031 2 157 0.0 1.6 0.00 0.00 0.00 79 1008.4
20260504024512 2 156 0.0 3.2 0.00 0.00 0.00 78 1008.3
20260504023009 3 154 0.0 0.0 0.00 0.00 0.00 76 1008.3
20260504021507 3 154 0.0 1.6 0.00 0.00 0.00 74 1008.2
20260504020005 3 149 0.0 1.6 0.00 0.00 0.00 73 1008.1
20260504014506 4 152 0.0 1.6 0.00 0.00 0.00 70 1008.1